This demonstration page uses our WeatherBlox Daily Observations layout. Learn more.

Left ArrowRight Arrow

41.86663, -103.66717

Hourly Observations for February 22, 2016

Temp ( °F °C ) Dew Point ( °F °C ) Humidity (%) Winds ( mph kmh ) Pressure ( in mb ) Visibility ( mi km ) Precip ( " mm )
12:53 am 00:53 Clear 26 -3.3 19 -7.2 75 75 E 9 15 30.09 1019 10 16 N/A
1:53 am 01:53 Clear 25 -3.9 18 -7.8 75 75 E 5 7 30.07 1018 10 16 N/A
2:53 am 02:53 Clear 24 -4.4 17 -8.3 75 75 E 5 7 30.04 1017 10 16 N/A
3:53 am 03:53 Clear 25 -3.9 19 -7.2 78 78 NE 7 11 30.02 1017 10 16 N/A
4:53 am 04:53 Clear 24 -4.4 19 -7.2 81 81 NW 7 11 30.03 1017 10 16 N/A
5:53 am 05:53 Clear 24 -4.4 20 -6.7 84 84 NW 5 7 30.03 1017 10 16 N/A
6:53 am 06:53 Sunny 23 -5 19 -7.2 85 85 W 5 7 30.05 1018 10 16 N/A
7:53 am 07:53 Sunny 26 -3.3 21 -6.1 81 81 NW 8 13 30.05 1018 10 16 N/A
8:53 am 08:53 Sunny 32 undefined 24 -4.4 73 73 WNW 8 13 30.04 1017 10 16 N/A
9:53 am 09:53 Sunny 40 4.4 23 -5 51 51 W 7 11 30.03 1017 10 16 N/A
10:53 am 10:53 Mostly Cloudy 46 7.8 22 -5.6 38 38 WNW 10 17 30.00 1016 10 16 N/A
11:53 am 11:53 Sunny 51 10.6 8 -13.3 17 17 N 10 17 29.96 1015 10 16 N/A
12:53 pm 12:53 Sunny 53 11.7 8 -13.3 16 16 N 16 26 29.93 1014 10 16 N/A
1:53 pm 13:53 Sunny 52 11.1 7 -13.9 16 16 N 13 20 29.93 1013 10 16 N/A
2:53 pm 14:53 Sunny 51 10.6 10 -12.2 19 19 N 18 30 29.93 1014 10 16 N/A
3:53 pm 15:53 Mostly Sunny 49 9.4 14 -10 25 25 N 16 26 29.95 1014 10 16 N/A
4:53 pm 16:53 Partly Cloudy 46 7.8 18 -7.8 32 32 N 16 26 29.98 1015 10 16 N/A
5:53 pm 17:53 Cloudy 42 5.6 21 -6.1 43 43 N 9 15 30.02 1017 10 16 N/A
6:53 pm 18:53 Cloudy 41 5 21 -6.1 45 45 N 10 17 30.05 1018 10 16 N/A
7:53 pm 19:53 Cloudy 41 5 18 -7.8 39 39 N 13 20 30.06 1018 10 16 N/A
8:53 pm 20:53 Cloudy 40 4.4 19 -7.2 43 43 NNE 9 15 30.07 1018 10 16 N/A
9:53 pm 21:53 Cloudy 34 1.1 20 -6.7 56 56 W 5 7 30.09 1019 10 16 N/A
10:53 pm 22:53 Clear 33 0.6 19 -7.2 56 56 VRB 7 11 30.08 1019 10 16 N/A
11:53 pm 23:53 Clear 32 undefined 20 -6.7 61 61 NNE 9 15 30.09 1019 10 16 N/A

Powered by AerisWeather